RYR2KZ EGCC-EKCH

Flight info

Callsign RYR2KZ
Flight time 1h 27m
Altitude 23000
Route POL P17 NUKPE/N0378F250 P17 MEJAC/N0441F370 DCT SURAT DCT PETIL DCT TESPI
Aircraft B38M/M-SADE3FGILRWY/SB1

Departure

Time 2026-04-25 18:40
Airport Manchester Airport (EGCC)

Arrival

Time 2026-04-25 20:07
Airport Copenhagen Kastrup Airport (EKCH)
Time Latitude Longitude Altitude Speed Heading
2026-04-25 18:06 53.35974 -2.26976 257 ft 0 kts 291°
2026-04-25 18:30 53.35971 -2.26965 257 ft 3 kts 290°
2026-04-25 18:30 53.35964 -2.26929 257 ft 3 kts 287°
2026-04-25 18:31 53.35959 -2.26892 257 ft 3 kts 274°
2026-04-25 18:31 53.35961 -2.26858 257 ft 3 kts 238°
2026-04-25 18:31 53.35974 -2.26832 257 ft 3 kts 220°
2026-04-25 18:31 53.35993 -2.26810 257 ft 3 kts 216°
2026-04-25 18:32 53.36009 -2.26785 257 ft 3 kts 228°
2026-04-25 18:32 53.36023 -2.26757 257 ft 3 kts 232°
2026-04-25 18:32 53.36037 -2.26727 257 ft 3 kts 230°
2026-04-25 18:32 53.36051 -2.26697 257 ft 3 kts 234°
2026-04-25 18:33 53.36057 -2.26684 257 ft 1 kts 231°
2026-04-25 18:36 53.36053 -2.26692 257 ft 2 kts 231°
2026-04-25 18:36 53.36039 -2.26722 257 ft 4 kts 231°
2026-04-25 18:37 53.36009 -2.26751 257 ft 6 kts 185°
2026-04-25 18:37 53.35976 -2.26710 257 ft 7 kts 112°
2026-04-25 18:37 53.35991 -2.26629 257 ft 8 kts 51°
2026-04-25 18:37 53.36033 -2.26543 257 ft 11 kts 51°
2026-04-25 18:38 53.36081 -2.26444 257 ft 12 kts 51°
2026-04-25 18:38 53.36137 -2.26327 258 ft 13 kts 51°
2026-04-25 18:38 53.36204 -2.26230 259 ft 14 kts 43°
2026-04-25 18:38 53.36265 -2.26094 258 ft 15 kts 69°
2026-04-25 18:39 53.36283 -2.25925 258 ft 15 kts 71°
2026-04-25 18:39 53.36261 -2.25768 263 ft 11 kts 140°
2026-04-25 18:39 53.36187 -2.25817 261 ft 20 kts 231°
2026-04-25 18:39 53.35968 -2.26270 265 ft 87 kts 231°
2026-04-25 18:40 53.35446 -2.27348 250 ft 153 kts 231°
2026-04-25 18:40 53.34707 -2.28893 719 ft 169 kts 232°
2026-04-25 18:40 53.33965 -2.30471 1501 ft 177 kts 231°
2026-04-25 18:40 53.33152 -2.32189 1959 ft 206 kts 231°
2026-04-25 18:41 53.32257 -2.34262 2625 ft 226 kts 243°
2026-04-25 18:41 53.31991 -2.36854 3503 ft 238 kts 282°
2026-04-25 18:41 53.32824 -2.39347 3980 ft 262 kts 318°
2026-04-25 18:41 53.34433 -2.40709 4760 ft 262 kts 351°
2026-04-25 18:42 53.36257 -2.40611 5617 ft 266 kts 11°
2026-04-25 18:42 53.37457 -2.40233 6269 ft 265 kts 10°
2026-04-25 18:42 53.39926 -2.39383 7307 ft 275 kts 12°
2026-04-25 18:42 53.41791 -2.38639 8193 ft 277 kts 13°
2026-04-25 18:43 53.43686 -2.37843 8961 ft 284 kts 14°
2026-04-25 18:43 53.45606 -2.36954 9797 ft 288 kts 15°
2026-04-25 18:43 53.47522 -2.36049 10532 ft 294 kts 15°
2026-04-25 18:43 53.49457 -2.34657 10921 ft 313 kts 31°
2026-04-25 18:44 53.51362 -2.32707 11393 ft 327 kts 30°
2026-04-25 18:44 53.53346 -2.30742 12072 ft 332 kts 29°
2026-04-25 18:44 53.55355 -2.28776 12845 ft 337 kts 29°
2026-04-25 18:44 53.57397 -2.26794 13605 ft 341 kts 29°
2026-04-25 18:45 53.59465 -2.24791 14331 ft 345 kts 28°
2026-04-25 18:45 53.61555 -2.22769 15001 ft 349 kts 28°
2026-04-25 18:45 53.63671 -2.20721 15696 ft 352 kts 28°
2026-04-25 18:45 53.65810 -2.18650 16364 ft 356 kts 28°
2026-04-25 18:46 53.67964 -2.16562 17035 ft 360 kts 28°
2026-04-25 18:46 53.70146 -2.14443 17684 ft 363 kts 28°
2026-04-25 18:46 53.72345 -2.12307 18321 ft 367 kts 28°
2026-04-25 18:46 53.74623 -2.10313 18859 ft 369 kts 17°
2026-04-25 18:47 53.77093 -2.09146 19415 ft 370 kts 13°
2026-04-25 18:47 53.79589 -2.07986 19944 ft 373 kts 13°
2026-04-25 18:47 53.82102 -2.06831 20526 ft 375 kts 13°
2026-04-25 18:47 53.84628 -2.05679 21053 ft 378 kts 12°
2026-04-25 18:48 53.87179 -2.04516 21594 ft 381 kts 12°
2026-04-25 18:48 53.89749 -2.03344 22121 ft 384 kts 12°
2026-04-25 18:48 53.92337 -2.02163 22653 ft 387 kts 12°
2026-04-25 18:48 53.94943 -2.00972 23164 ft 390 kts 12°
2026-04-25 18:49 53.97571 -1.99770 23700 ft 392 kts 12°
2026-04-25 18:49 54.00216 -1.98557 24130 ft 396 kts 12°
2026-04-25 18:49 54.02886 -1.97335 24534 ft 399 kts 13°
2026-04-25 18:49 54.05577 -1.96103 24980 ft 401 kts 13°
2026-04-25 18:50 54.08279 -1.94865 25407 ft 404 kts 13°
2026-04-25 18:50 54.11004 -1.93615 25824 ft 407 kts 13°
2026-04-25 18:50 54.13747 -1.92356 26237 ft 410 kts 13°
2026-04-25 18:50 54.16508 -1.91087 26639 ft 412 kts 13°
2026-04-25 18:51 54.19281 -1.89806 27047 ft 415 kts 13°
2026-04-25 18:51 54.21133 -1.88950 27300 ft 417 kts 13°
2026-04-25 18:51 54.24893 -1.87209 27814 ft 421 kts 14°
2026-04-25 18:51 54.27735 -1.85891 28113 ft 425 kts 14°
2026-04-25 18:52 54.30569 -1.84409 28502 ft 428 kts 22°
2026-04-25 18:52 54.33089 -1.81822 28881 ft 431 kts 39°
2026-04-25 18:52 54.35141 -1.77976 29237 ft 435 kts 56°
2026-04-25 18:52 54.36723 -1.73543 29561 ft 438 kts 59°
2026-04-25 18:53 54.38271 -1.69031 29903 ft 440 kts 60°
2026-04-25 18:53 54.39804 -1.64468 30260 ft 442 kts 60°
2026-04-25 18:53 54.41328 -1.59865 30557 ft 445 kts 61°
2026-04-25 18:53 54.42846 -1.55237 30897 ft 446 kts 61°
2026-04-25 18:54 54.45868 -1.45974 31473 ft 450 kts 61°
2026-04-25 18:54 54.47397 -1.41272 31794 ft 451 kts 61°
2026-04-25 18:54 54.48927 -1.36558 32051 ft 453 kts 61°
2026-04-25 18:55 54.50463 -1.31815 32370 ft 454 kts 61°
2026-04-25 18:55 54.52004 -1.27047 32582 ft 458 kts 61°
2026-04-25 18:55 54.53550 -1.22258 32907 ft 458 kts 62°
2026-04-25 18:55 54.55100 -1.17442 33108 ft 462 kts 62°
2026-04-25 18:56 54.56654 -1.12607 33457 ft 461 kts 62°
2026-04-25 18:56 54.58210 -1.07755 33747 ft 462 kts 61°
2026-04-25 18:56 54.59757 -1.02925 34218 ft 459 kts 62°
2026-04-25 18:56 54.61294 -0.98113 34596 ft 457 kts 62°
2026-04-25 18:57 54.62823 -0.93315 34904 ft 457 kts 62°
2026-04-25 18:57 54.64353 -0.88507 35154 ft 457 kts 61°
2026-04-25 18:57 54.65879 -0.83699 35449 ft 456 kts 61°
2026-04-25 18:57 54.66887 -0.80518 35604 ft 457 kts 61°
2026-04-25 18:58 54.68924 -0.74080 35991 ft 456 kts 61°
2026-04-25 18:58 54.71960 -0.64451 36493 ft 456 kts 61°
2026-04-25 18:58 54.73476 -0.59630 36750 ft 455 kts 61°
2026-04-25 18:59 54.76493 -0.50001 37225 ft 455 kts 61°
2026-04-25 18:59 54.79510 -0.40337 37273 ft 455 kts 61°
2026-04-25 19:00 54.83983 -0.25936 37280 ft 455 kts 61°
2026-04-25 19:01 54.88457 -0.11440 37289 ft 454 kts 61°
2026-04-25 19:01 54.91433 -0.01752 37296 ft 454 kts 62°
2026-04-25 19:02 54.95871 0.12771 37286 ft 453 kts 61°
2026-04-25 19:03 54.99315 0.24103 37287 ft 453 kts 61°
2026-04-25 19:03 55.03223 0.37026 37287 ft 453 kts 62°
2026-04-25 19:04 55.07608 0.51611 37294 ft 453 kts 62°
2026-04-25 19:05 55.13428 0.71110 37292 ft 452 kts 61°
2026-04-25 19:06 55.16325 0.80879 37293 ft 452 kts 61°
2026-04-25 19:06 55.20656 0.95555 37274 ft 452 kts 62°
2026-04-25 19:07 55.24969 1.10264 37292 ft 452 kts 62°
2026-04-25 19:08 55.29236 1.24909 37284 ft 446 kts 62°
2026-04-25 19:09 55.32719 1.39971 37278 ft 447 kts 83°
2026-04-25 19:09 55.32936 1.43557 37308 ft 448 kts 80°
2026-04-25 19:10 55.34699 1.61631 37277 ft 449 kts 79°
2026-04-25 19:10 55.35770 1.72450 37286 ft 449 kts 79°
2026-04-25 19:11 55.36830 1.83263 37280 ft 449 kts 78°
2026-04-25 19:11 55.37880 1.94077 37280 ft 449 kts 79°
2026-04-25 19:12 55.38913 2.04826 37275 ft 449 kts 79°
2026-04-25 19:12 55.39945 2.15660 37277 ft 449 kts 79°
2026-04-25 19:13 55.40968 2.26505 37272 ft 449 kts 79°
2026-04-25 19:13 55.41982 2.37370 37279 ft 450 kts 79°
2026-04-25 19:14 55.42988 2.48249 37278 ft 450 kts 79°
2026-04-25 19:14 55.43984 2.59134 37282 ft 450 kts 79°
2026-04-25 19:15 55.44970 2.70022 37274 ft 450 kts 79°
2026-04-25 19:15 55.45949 2.80933 37282 ft 450 kts 79°
2026-04-25 19:16 55.46915 2.91841 37271 ft 451 kts 79°
2026-04-25 19:16 55.47873 3.02759 37270 ft 451 kts 79°
2026-04-25 19:17 55.48823 3.13686 37274 ft 451 kts 78°
2026-04-25 19:17 55.49760 3.24600 37257 ft 450 kts 78°
2026-04-25 19:18 55.50688 3.35522 37264 ft 450 kts 78°
2026-04-25 19:18 55.51605 3.46428 37243 ft 449 kts 78°
2026-04-25 19:19 55.52512 3.57343 37232 ft 450 kts 78°
2026-04-25 19:19 55.53410 3.68267 37230 ft 450 kts 78°
2026-04-25 19:20 55.54297 3.79188 37232 ft 450 kts 78°
2026-04-25 19:20 55.55176 3.90123 37256 ft 450 kts 78°
2026-04-25 19:21 55.55899 3.99217 37234 ft 450 kts 77°
2026-04-25 19:21 55.57188 4.15659 37230 ft 450 kts 77°
2026-04-25 19:22 55.58035 4.26629 37227 ft 451 kts 77°
2026-04-25 19:23 55.59288 4.43092 37226 ft 451 kts 78°
2026-04-25 19:23 55.60520 4.59579 37223 ft 451 kts 77°
2026-04-25 19:24 55.61330 4.70588 37220 ft 452 kts 77°
2026-04-25 19:25 55.62915 4.92559 37223 ft 452 kts 77°
2026-04-25 19:25 55.63673 5.03600 37216 ft 454 kts 82°
2026-04-25 19:26 55.63631 5.14814 37202 ft 456 kts 84°
2026-04-25 19:26 55.63677 5.26045 37212 ft 457 kts 85°
2026-04-25 19:27 55.63682 5.35384 37217 ft 457 kts 85°
2026-04-25 19:27 55.63673 5.48525 37216 ft 457 kts 85°
2026-04-25 19:28 55.63655 5.59773 37230 ft 457 kts 84°
2026-04-25 19:28 55.63625 5.71024 37210 ft 458 kts 84°
2026-04-25 19:29 55.63586 5.82296 37203 ft 458 kts 85°
2026-04-25 19:29 55.63536 5.93566 37203 ft 458 kts 85°
2026-04-25 19:30 55.63476 6.04828 37197 ft 458 kts 85°
2026-04-25 19:30 55.63405 6.16112 37222 ft 459 kts 84°
2026-04-25 19:31 55.63325 6.27367 37188 ft 461 kts 84°
2026-04-25 19:31 55.63233 6.38726 37184 ft 462 kts 84°
2026-04-25 19:32 55.63130 6.50092 37176 ft 462 kts 84°
2026-04-25 19:32 55.63036 6.59611 37176 ft 462 kts 84°
2026-04-25 19:33 55.62894 6.72825 37201 ft 462 kts 84°
2026-04-25 19:33 55.62759 6.84213 37166 ft 463 kts 84°
2026-04-25 19:34 55.62614 6.95614 37162 ft 464 kts 84°
2026-04-25 19:34 55.62458 7.07027 37162 ft 464 kts 84°
2026-04-25 19:35 55.62292 7.18435 37151 ft 464 kts 84°
2026-04-25 19:35 55.62115 7.29843 37182 ft 464 kts 84°
2026-04-25 19:36 55.61927 7.41279 37145 ft 466 kts 84°
2026-04-25 19:36 55.61728 7.52729 37142 ft 466 kts 84°
2026-04-25 19:37 55.61518 7.64185 37142 ft 466 kts 84°
2026-04-25 19:37 55.61298 7.75643 37138 ft 466 kts 84°
2026-04-25 19:38 55.61067 7.87100 37161 ft 467 kts 83°
2026-04-25 19:38 55.60824 7.98622 37124 ft 470 kts 83°
2026-04-25 19:39 55.60569 8.10164 37113 ft 470 kts 84°
2026-04-25 19:39 55.60303 8.21717 37114 ft 470 kts 84°
2026-04-25 19:40 55.60027 8.33268 37103 ft 470 kts 84°
2026-04-25 19:40 55.59740 8.44819 37142 ft 472 kts 83°
2026-04-25 19:41 55.59439 8.56455 36966 ft 474 kts 83°
2026-04-25 19:41 55.59285 8.62270 36687 ft 473 kts 84°
2026-04-25 19:41 55.59234 8.64156 36576 ft 473 kts 84°
2026-04-25 19:42 55.58970 8.73831 35714 ft 467 kts 83°
2026-04-25 19:42 55.58810 8.79559 35004 ft 466 kts 83°
2026-04-25 19:42 55.58647 8.85301 34268 ft 469 kts 84°
2026-04-25 19:42 55.58479 8.91094 33332 ft 475 kts 84°
2026-04-25 19:43 55.58307 8.96948 32416 ft 481 kts 83°
2026-04-25 19:43 55.58134 9.02806 31485 ft 487 kts 84°
2026-04-25 19:43 55.57950 9.08816 30564 ft 492 kts 84°
2026-04-25 19:43 55.57761 9.14952 29545 ft 497 kts 84°
2026-04-25 19:44 55.57569 9.21087 28484 ft 501 kts 84°
2026-04-25 19:44 55.57372 9.27244 27469 ft 504 kts 84°
2026-04-25 19:44 55.57175 9.33354 26545 ft 506 kts 84°
2026-04-25 19:44 55.56972 9.39522 26032 ft 498 kts 84°
2026-04-25 19:45 55.56770 9.45564 25667 ft 488 kts 84°
2026-04-25 19:45 55.56569 9.51501 25251 ft 480 kts 84°
2026-04-25 19:45 55.56368 9.57349 24824 ft 475 kts 83°
2026-04-25 19:45 55.56167 9.63137 24351 ft 470 kts 83°
2026-04-25 19:46 55.55965 9.68851 23926 ft 464 kts 83°
2026-04-25 19:46 55.55763 9.74517 23485 ft 459 kts 83°
2026-04-25 19:46 55.55560 9.80116 23021 ft 453 kts 83°
2026-04-25 19:46 55.55359 9.85626 22617 ft 447 kts 83°
2026-04-25 19:47 55.55156 9.91073 22219 ft 441 kts 83°
2026-04-25 19:47 55.54955 9.96443 21819 ft 436 kts 83°
2026-04-25 19:47 55.54753 10.01761 21430 ft 431 kts 82°
2026-04-25 19:47 55.54551 10.07005 21055 ft 426 kts 82°
2026-04-25 19:48 55.54349 10.12212 20705 ft 423 kts 81°
2026-04-25 19:48 55.54146 10.17384 20299 ft 421 kts 81°
2026-04-25 19:48 55.53942 10.22515 19917 ft 418 kts 81°
2026-04-25 19:48 55.53737 10.27614 19541 ft 415 kts 81°
2026-04-25 19:49 55.53533 10.32664 19154 ft 411 kts 81°
2026-04-25 19:49 55.53463 10.34365 19032 ft 410 kts 81°
2026-04-25 19:49 55.53121 10.42666 18425 ft 405 kts 81°
2026-04-25 19:49 55.52914 10.47616 18020 ft 403 kts 81°
2026-04-25 19:50 55.52500 10.57381 17272 ft 395 kts 81°
2026-04-25 19:50 55.52293 10.62188 16912 ft 391 kts 81°
2026-04-25 19:50 55.52087 10.66944 16560 ft 387 kts 82°
2026-04-25 19:51 55.51881 10.71665 16209 ft 384 kts 82°
2026-04-25 19:51 55.51673 10.76349 15848 ft 381 kts 82°
2026-04-25 19:51 55.51467 10.80985 15496 ft 378 kts 82°
2026-04-25 19:51 55.51260 10.85592 15147 ft 375 kts 82°
2026-04-25 19:52 55.51054 10.90153 14798 ft 372 kts 82°
2026-04-25 19:52 55.50846 10.94694 14452 ft 370 kts 82°
2026-04-25 19:52 55.50639 10.99198 14113 ft 367 kts 82°
2026-04-25 19:52 55.50431 11.03675 13757 ft 365 kts 83°
2026-04-25 19:53 55.50221 11.08132 13359 ft 363 kts 83°
2026-04-25 19:53 55.50012 11.12553 13001 ft 360 kts 84°
2026-04-25 19:53 55.49805 11.16926 12684 ft 356 kts 84°
2026-04-25 19:53 55.49598 11.21251 12364 ft 353 kts 85°
2026-04-25 19:54 55.49391 11.25546 11983 ft 350 kts 86°
2026-04-25 19:54 55.49183 11.29809 11645 ft 347 kts 86°
2026-04-25 19:54 55.48977 11.34032 11305 ft 344 kts 87°
2026-04-25 19:54 55.48910 11.35393 11200 ft 343 kts 87°
2026-04-25 19:55 55.48568 11.42300 10638 ft 337 kts 88°
2026-04-25 19:55 55.48360 11.46452 10305 ft 334 kts 89°
2026-04-25 19:55 55.48157 11.50485 10035 ft 323 kts 89°
2026-04-25 19:55 55.47966 11.54268 9850 ft 307 kts 89°
2026-04-25 19:56 55.47777 11.57994 9530 ft 297 kts 89°
2026-04-25 19:56 55.47593 11.61606 9206 ft 295 kts 89°
2026-04-25 19:56 55.47408 11.65196 8880 ft 293 kts 89°
2026-04-25 19:56 55.47224 11.68745 8597 ft 289 kts 89°
2026-04-25 19:57 55.47044 11.72207 8338 ft 285 kts 89°
2026-04-25 19:57 55.46863 11.75671 8089 ft 282 kts 88°
2026-04-25 19:57 55.46682 11.79093 7797 ft 280 kts 88°
2026-04-25 19:57 55.46502 11.82497 7505 ft 278 kts 88°
2026-04-25 19:58 55.46322 11.85874 7214 ft 275 kts 88°
2026-04-25 19:58 55.46143 11.89216 6935 ft 273 kts 88°
2026-04-25 19:58 55.45965 11.92530 6648 ft 271 kts 88°
2026-04-25 19:58 55.45787 11.95820 6365 ft 268 kts 88°
2026-04-25 19:59 55.45609 11.99082 6092 ft 266 kts 88°
2026-04-25 19:59 55.45432 12.02319 5799 ft 265 kts 88°
2026-04-25 19:59 55.45256 12.05532 5525 ft 262 kts 88°
2026-04-25 19:59 55.45080 12.08717 5233 ft 260 kts 88°
2026-04-25 20:00 55.44906 12.11873 4962 ft 258 kts 88°
2026-04-25 20:00 55.44847 12.12936 4868 ft 257 kts 88°
2026-04-25 20:00 55.44557 12.18101 4422 ft 253 kts 88°
2026-04-25 20:00 55.44385 12.21149 4234 ft 247 kts 88°
2026-04-25 20:01 55.44057 12.26946 4005 ft 229 kts 87°
2026-04-25 20:01 55.43902 12.29682 3890 ft 220 kts 87°
2026-04-25 20:01 55.43750 12.32348 3706 ft 220 kts 87°
2026-04-25 20:02 55.43770 12.35007 3573 ft 213 kts 65°
2026-04-25 20:02 55.44405 12.37257 3480 ft 201 kts 44°
2026-04-25 20:02 55.45346 12.38993 3427 ft 190 kts 35°
2026-04-25 20:02 55.46318 12.40509 3307 ft 184 kts 34°
2026-04-25 20:03 55.47280 12.41981 3091 ft 183 kts 34°
2026-04-25 20:03 55.48231 12.43438 2888 ft 178 kts 33°
2026-04-25 20:03 55.49143 12.44841 2667 ft 171 kts 33°
2026-04-25 20:03 55.50026 12.46197 2446 ft 166 kts 32°
2026-04-25 20:04 55.50881 12.47512 2219 ft 161 kts 32°
2026-04-25 20:04 55.51708 12.48786 2002 ft 156 kts 32°
2026-04-25 20:04 55.52529 12.50046 1798 ft 156 kts 32°
2026-04-25 20:04 55.53345 12.51302 1596 ft 155 kts 32°
2026-04-25 20:05 55.54149 12.52542 1376 ft 151 kts 32°
2026-04-25 20:05 55.54918 12.53729 1209 ft 143 kts 32°
2026-04-25 20:05 55.55644 12.54848 989 ft 138 kts 32°
2026-04-25 20:05 55.56377 12.55991 814 ft 140 kts 32°
2026-04-25 20:06 55.57128 12.57119 603 ft 147 kts 33°
2026-04-25 20:06 55.57933 12.58336 390 ft 152 kts 39°
2026-04-25 20:06 55.58707 12.59554 206 ft 148 kts 36°
2026-04-25 20:06 55.59478 12.60746 29 ft 148 kts 35°
2026-04-25 20:07 55.60109 12.61725 28 ft 85 kts 41°
2026-04-25 20:07 55.60423 12.62207 27 ft 52 kts 40°
2026-04-25 20:07 55.60687 12.62618 28 ft 44 kts 40°
2026-04-25 20:07 55.60933 12.62851 27 ft 39 kts 14°
2026-04-25 20:08 55.61154 12.62963 26 ft 30 kts 34°
2026-04-25 20:08 55.61311 12.63202 27 ft 29 kts 41°
2026-04-25 20:08 55.61466 12.63441 26 ft 30 kts 41°
2026-04-25 20:08 55.61622 12.63684 26 ft 29 kts 41°
2026-04-25 20:09 55.61759 12.63897 27 ft 24 kts 41°
2026-04-25 20:09 55.61890 12.64085 26 ft 24 kts 21°
2026-04-25 20:09 55.62048 12.64216 28 ft 26 kts 26°
2026-04-25 20:09 55.62157 12.64307 26 ft 25 kts 25°
2026-04-25 20:10 55.62238 12.64381 26 ft 14 kts 42°
2026-04-25 20:10 55.62300 12.64599 26 ft 16 kts 66°
2026-04-25 20:10 55.62344 12.64777 26 ft 12 kts 66°
2026-04-25 20:10 55.62339 12.64906 26 ft 12 kts 124°
2026-04-25 20:11 55.62287 12.65042 26 ft 14 kts 123°
2026-04-25 20:11 55.62296 12.65180 30 ft 13 kts 40°
2026-04-25 20:11 55.62391 12.65201 29 ft 14 kts 356°
2026-04-25 20:11 55.62440 12.65286 26 ft 12 kts 89°
2026-04-25 20:12 55.62442 12.65444 27 ft 13 kts 89°
2026-04-25 20:12 55.62476 12.65539 26 ft 9 kts 27°
2026-04-25 20:12 55.62511 12.65566 26 ft 2 kts 23°
2026-04-25 20:12 55.62515 12.65569 26 ft 0 kts 23°